,,,PA_Meas_PMT16A,,PR_Meas_QMR101_102,,RH_Meas_QMH101,,SR_Meas_QMS101,,TA_Meas_QMH101,,GenWind,,GenWind,
date,time,status,PA,status,PR,status,RH,status,SR,status,TA,status,DirAvg,status,SpdAvg,
2009-01-26, 00:00:04,VALID,1004.64,VALID,0,VALID,93.1257,VALID,0,VALID,24.6166,VALID,335,VALID,0.0894531,
2009-01-26, 00:01:04,VALID,1004.64,VALID,0,VALID,93.1563,VALID,0,VALID,24.6166,VALID,335,VALID,0,
2009-01-26, 00:02:04,VALID,1004.65,VALID,0,VALID,93.1181,VALID,0,VALID,24.638,VALID,335,VALID,0,
2009-01-26, 00:03:04,VALID,1004.64,VALID,0,VALID,93.08,VALID,0,VALID,24.638,VALID,335,VALID,0,
2009-01-26, 00:04:04,VALID,1004.63,VALID,0,VALID,93.1639,VALID,0,VALID,24.638,VALID,335,VALID,0.0292969,
2009-01-26, 00:05:04,VALID,1004.63,VALID,0,VALID,93.1639,VALID,0,VALID,24.6574,VALID,341,VALID,0.526563,
2009-01-26, 00:06:04,VALID,1004.59,VALID,0,VALID,93.1944,VALID,0,VALID,24.638,VALID,355,VALID,0.349219,
2009-01-26, 00:07:04,VALID,1004.59,VALID,0,VALID,93.1868,VALID,0,VALID,24.638,VALID,355,VALID,0.24375,
2009-01-26, 00:08:04,VALID,1004.56,VALID,0,VALID,93.0952,VALID,0,VALID,24.6185,VALID,355,VALID,0.183203,
2009-01-26, 00:09:04,VALID,1004.55,VALID,0,VALID,93.1105,VALID,0,VALID,24.5796,VALID,355,VALID,0,
2009-01-26, 00:10:04,VALID,1004.54,VALID,0,VALID,93.1486,VALID,0.100563,VALID,24.5796,VALID,355,VALID,0,
2009-01-26, 00:11:04,VALID,1004.56,VALID,0,VALID,93.1715,VALID,0,VALID,24.5796,VALID,355,VALID,0,
2009-01-26, 00:12:04,VALID,1004.53,VALID,0,VALID,93.1944,VALID,0,VALID,24.5582,VALID,355,VALID,0,
2009-01-26, 00:13:04,VALID,1004.53,VALID,0,VALID,93.2707,VALID,0,VALID,24.5796,VALID,355,VALID,0,
2009-01-26, 00:14:04,VALID,1004.49,VALID,0,VALID,93.2478,VALID,0,VALID,24.5796,VALID,355,VALID,0,
2009-01-26, 00:15:04,VALID,1004.43,VALID,0,VALID,93.2249,VALID,0,VALID,24.5796,VALID,355,VALID,0,
2009-01-26, 00:16:04,VALID,1004.42,VALID,0,VALID,93.2249,VALID,0,VALID,24.5601,VALID,355,VALID,0,
2009-01-26, 00:17:04,VALID,1004.35,VALID,0,VALID,93.2554,VALID,0,VALID,24.5601,VALID,355,VALID,0,
2009-01-26, 00:18:04,VALID,1004.33,VALID,0,VALID,93.2936,VALID,0,VALID,24.5601,VALID,355,VALID,0,
2009-01-26, 00:19:04,VALID,1004.31,VALID,0,VALID,93.2249,VALID,0,VALID,24.5406,VALID,355,VALID,0.0585938,
2009-01-26, 00:20:04,VALID,1004.26,VALID,0,VALID,93.2859,VALID,0,VALID,24.4998,VALID,358,VALID,0.492188,
2009-01-26, 00:21:04,VALID,1004.22,VALID,0,VALID,93.2936,VALID,0,VALID,24.4998,VALID,10,VALID,0.490625,
2009-01-26, 00:22:04,VALID,1004.19,VALID,0,VALID,93.3165,VALID,0,VALID,24.5212,VALID,10,VALID,0.575391,
2009-01-26, 00:23:04,VALID,1004.14,VALID,0,VALID,93.3241,VALID,0,VALID,24.5017,VALID,11,VALID,0.414844,
2009-01-26, 00:24:04,VALID,1004.1,VALID,0,VALID,93.3165,VALID,0,VALID,24.5017,VALID,11,VALID,0.126953,
2009-01-26, 00:25:04,VALID,1004.04,VALID,0,VALID,93.3317,VALID,0,VALID,24.4822,VALID,11,VALID,0.124219,
2009-01-26, 00:26:04,VALID,1004,VALID,0,VALID,93.3851,VALID,0,VALID,24.4609,VALID,11,VALID,0,
2009-01-26, 00:27:04,VALID,1004.01,VALID,0,VALID,93.408,VALID,0,VALID,24.4822,VALID,11,VALID,0.355859,
2009-01-26, 00:28:04,VALID,1004.02,VALID,0,VALID,93.3851,VALID,0,VALID,24.4822,VALID,11,VALID,0.694141,
2009-01-26, 00:29:04,VALID,1004.01,VALID,0,VALID,93.3699,VALID,0,VALID,24.4628,VALID,11,VALID,0.744531,
2009-01-26, 00:30:04,VALID,1003.96,VALID,0,VALID,93.4004,VALID,0,VALID,24.4628,VALID,11,VALID,0.727734,
2009-01-26, 00:31:04,VALID,1003.92,VALID,0,VALID,93.4385,VALID,0,VALID,24.4414,VALID,11,VALID,0.499609,
2009-01-26, 00:32:04,VALID,1003.86,VALID,0,VALID,93.4233,VALID,0,VALID,24.422,VALID,11,VALID,0.401953,
2009-01-26, 00:33:04,VALID,1003.89,VALID,0,VALID,93.4462,VALID,0,VALID,24.422,VALID,10,VALID,0.223828,
2009-01-26, 00:34:04,VALID,1003.86,VALID,0,VALID,93.4233,VALID,0,VALID,24.4238,VALID,10,VALID,0.18125,
2009-01-26, 00:35:04,VALID,1003.87,VALID,0,VALID,93.4233,VALID,0,VALID,24.4238,VALID,10,VALID,0.0117188,
2009-01-26, 00:36:04,VALID,1003.87,VALID,0,VALID,93.3928,VALID,0,VALID,24.4043,VALID,10,VALID,0.467578,
2009-01-26, 00:37:04,VALID,1003.87,VALID,0,VALID,93.4233,VALID,0,VALID,24.4043,VALID,10,VALID,0.401953,
2009-01-26, 00:38:04,VALID,1003.87,VALID,0,VALID,93.4919,VALID,0,VALID,24.3849,VALID,10,VALID,0.582031,
2009-01-26, 00:39:04,VALID,1003.88,VALID,0,VALID,93.4996,VALID,0,VALID,24.3849,VALID,10,VALID,0.682813,
2009-01-26, 00:40:04,VALID,1003.88,VALID,0,VALID,93.5758,VALID,0,VALID,24.3849,VALID,358,VALID,0.664453,
2009-01-26, 00:41:04,VALID,1003.89,VALID,0,VALID,93.5911,VALID,0,VALID,24.3654,VALID,358,VALID,0.736719,
2009-01-26, 00:42:04,VALID,1003.86,VALID,0,VALID,93.5987,VALID,0,VALID,24.3459,VALID,358,VALID,0.690625,
2009-01-26, 00:43:04,VALID,1003.85,VALID,0,VALID,93.6598,VALID,0,VALID,24.3459,VALID,358,VALID,0.720703,
2009-01-26, 00:44:04,VALID,1003.82,VALID,0,VALID,93.6903,VALID,0,VALID,24.3459,VALID,358,VALID,0.515625,
2009-01-26, 00:45:04,VALID,1003.85,VALID,0,VALID,93.7055,VALID,0,VALID,24.3265,VALID,358,VALID,0.444531,
2009-01-26, 00:46:04,VALID,1003.83,VALID,0,VALID,93.7361,VALID,0,VALID,24.3265,VALID,358,VALID,0.335938,
2009-01-26, 00:47:04,VALID,1003.83,VALID,0,VALID,93.7742,VALID,0,VALID,24.307,VALID,358,VALID,0,
2009-01-26, 00:48:04,VALID,1003.86,VALID,0,VALID,93.7437,VALID,0,VALID,24.3052,VALID,358,VALID,0.0742188,
2009-01-26, 00:49:04,VALID,1003.84,VALID,0,VALID,93.7361,VALID,0,VALID,24.2875,VALID,358,VALID,0.317969,
2009-01-26, 00:50:04,VALID,1003.82,VALID,0,VALID,93.7361,VALID,0,VALID,24.2875,VALID,358,VALID,0.311328,
2009-01-26, 00:51:04,VALID,1003.81,VALID,0,VALID,93.7513,VALID,0,VALID,24.2681,VALID,358,VALID,0.319531,
2009-01-26, 00:52:04,VALID,1003.82,VALID,0,VALID,93.7895,VALID,0,VALID,24.2681,VALID,358,VALID,0.271094,
2009-01-26, 00:53:04,VALID,1003.79,VALID,0,VALID,93.8429,VALID,0,VALID,24.2486,VALID,358,VALID,0.252734,
2009-01-26, 00:54:04,VALID,1003.78,VALID,0,VALID,93.8886,VALID,0,VALID,24.2468,VALID,358,VALID,0.223438,
2009-01-26, 00:55:04,VALID,1003.75,VALID,0,VALID,93.8123,VALID,0,VALID,24.2468,VALID,358,VALID,0.477734,
2009-01-26, 00:56:04,VALID,1003.74,VALID,0,VALID,93.8123,VALID,0,VALID,24.2486,VALID,358,VALID,0.394922,
2009-01-26, 00:57:04,VALID,1003.71,VALID,0,VALID,93.8047,VALID,0,VALID,24.2681,VALID,358,VALID,0.0640625,
2009-01-26, 00:58:04,VALID,1003.7,VALID,0,VALID,93.8505,VALID,0,VALID,24.2486,VALID,358,VALID,0,
2009-01-26, 00:59:04,VALID,1003.68,VALID,0,VALID,93.82,VALID,0.100563,VALID,24.2486,VALID,358,VALID,0,
2009-01-26, 01:00:04,VALID,1003.63,VALID,0,VALID,93.8047,VALID,0,VALID,24.2078,VALID,358,VALID,0,
2009-01-26, 01:01:04,VALID,1003.6,VALID,0,VALID,93.8429,VALID,0,VALID,24.2486,VALID,358,VALID,0,
2009-01-26, 01:02:04,VALID,1003.59,VALID,0,VALID,93.8505,VALID,0.100563,VALID,24.2681,VALID,358,VALID,0,
2009-01-26, 01:03:04,VALID,1003.6,VALID,0,VALID,93.881,VALID,0,VALID,24.2486,VALID,358,VALID,0,
2009-01-26, 01:04:04,VALID,1003.61,VALID,0,VALID,93.942,VALID,0.100563,VALID,24.2681,VALID,358,VALID,0.13125,
2009-01-26, 01:05:04,VALID,1003.61,VALID,0,VALID,93.942,VALID,0,VALID,24.2857,VALID,358,VALID,0.278125,
2009-01-26, 01:06:04,VALID,1003.55,VALID,0,VALID,93.9497,VALID,0,VALID,24.2468,VALID,358,VALID,0.360156,
2009-01-26, 01:07:04,VALID,1003.5,VALID,0,VALID,93.881,VALID,0,VALID,24.2468,VALID,358,VALID,0.435547,
2009-01-26, 01:08:04,VALID,1003.46,VALID,0,VALID,93.9039,VALID,0.100563,VALID,24.2468,VALID,358,VALID,0.341406,
2009-01-26, 01:09:04,VALID,1003.45,VALID,0,VALID,93.9115,VALID,0.100563,VALID,24.2486,VALID,358,VALID,0,
2009-01-26, 01:10:04,VALID,1003.42,VALID,0,VALID,93.9268,VALID,0.100563,VALID,24.2273,VALID,358,VALID,0,
2009-01-26, 01:11:04,VALID,1003.37,VALID,0,VALID,93.9039,VALID,0,VALID,24.2486,VALID,358,VALID,0.00195313,
2009-01-26, 01:12:04,VALID,1003.37,VALID,0,VALID,93.942,VALID,0,VALID,24.2681,VALID,358,VALID,0.104297,
2009-01-26, 01:13:04,VALID,1003.38,VALID,0,VALID,93.9115,VALID,0,VALID,24.2486,VALID,358,VALID,0.071875,
2009-01-26, 01:14:04,VALID,1003.4,VALID,0,VALID,93.9344,VALID,0,VALID,24.2468,VALID,358,VALID,0,
2009-01-26, 01:15:04,VALID,1003.38,VALID,0,VALID,93.942,VALID,0,VALID,24.2662,VALID,358,VALID,0,
2009-01-26, 01:16:04,VALID,1003.4,VALID,0,VALID,93.9344,VALID,0,VALID,24.2468,VALID,358,VALID,0,
2009-01-26, 01:17:04,VALID,1003.43,VALID,0,VALID,93.9573,VALID,0,VALID,24.2875,VALID,358,VALID,0.109766,
2009-01-26, 01:18:04,VALID,1003.45,VALID,0,VALID,93.9497,VALID,0,VALID,24.2662,VALID,358,VALID,0.351953,
2009-01-26, 01:19:04,VALID,1003.44,VALID,0,VALID,93.9115,VALID,0,VALID,24.2662,VALID,358,VALID,0.336328,
2009-01-26, 01:20:04,VALID,1003.46,VALID,0,VALID,93.9039,VALID,0,VALID,24.2468,VALID,358,VALID,0.194531,
2009-01-26, 01:21:04,VALID,1003.43,VALID,0,VALID,93.881,VALID,0,VALID,24.2681,VALID,358,VALID,0.167969,
2009-01-26, 01:22:04,VALID,1003.44,VALID,0,VALID,93.8886,VALID,0.100563,VALID,24.2681,VALID,358,VALID,0.117188,
2009-01-26, 01:23:04,VALID,1003.42,VALID,0,VALID,93.8734,VALID,0.100563,VALID,24.2486,VALID,358,VALID,0.192969,
2009-01-26, 01:24:04,VALID,1003.43,VALID,0,VALID,93.8505,VALID,0,VALID,24.2486,VALID,358,VALID,0.285156,
2009-01-26, 01:25:04,VALID,1003.46,VALID,0,VALID,93.8963,VALID,0,VALID,24.2291,VALID,358,VALID,0.36875,
2009-01-26, 01:26:04,VALID,1003.43,VALID,0,VALID,93.9115,VALID,0,VALID,24.2078,VALID,358,VALID,0.353516,
2009-01-26, 01:27:04,VALID,1003.48,VALID,0,VALID,93.9191,VALID,0,VALID,24.2273,VALID,358,VALID,0.296484,
2009-01-26, 01:28:04,VALID,1003.47,VALID,0,VALID,93.9191,VALID,0,VALID,24.2291,VALID,358,VALID,0.370703,
2009-01-26, 01:29:04,VALID,1003.45,VALID,0,VALID,93.9191,VALID,0,VALID,24.1884,VALID,358,VALID,0.407422,
2009-01-26, 01:30:04,VALID,1003.44,VALID,0,VALID,93.9344,VALID,0,VALID,24.1902,VALID,358,VALID,0.444922,
2009-01-26, 01:31:04,VALID,1003.46,VALID,0,VALID,93.9573,VALID,0,VALID,24.1707,VALID,358,VALID,0.342578,
2009-01-26, 01:32:04,VALID,1003.44,VALID,0,VALID,94.0946,VALID,0.100563,VALID,24.1902,VALID,358,VALID,0.291797,
2009-01-26, 01:33:04,VALID,1003.4,VALID,0,VALID,94.148,VALID,0,VALID,24.2097,VALID,358,VALID,0.244922,
2009-01-26, 01:34:04,VALID,1003.4,VALID,0,VALID,94.1556,VALID,0,VALID,24.2078,VALID,358,VALID,0.160156,
2009-01-26, 01:35:04,VALID,1003.39,VALID,0,VALID,94.1099,VALID,0,VALID,24.2078,VALID,358,VALID,0,
2009-01-26, 01:36:04,VALID,1003.38,VALID,0,VALID,94.0641,VALID,0,VALID,24.2097,VALID,358,VALID,0,
2009-01-26, 01:37:04,VALID,1003.37,VALID,0,VALID,93.9725,VALID,0,VALID,24.1902,VALID,358,VALID,0.00195313,
2009-01-26, 01:38:04,VALID,1003.38,VALID,0,VALID,93.9268,VALID,0,VALID,24.13,VALID,358,VALID,0.351953,
2009-01-26, 01:39:04,VALID,1003.4,VALID,0,VALID,93.9802,VALID,0,VALID,24.1318,VALID,358,VALID,0.279687,
2009-01-26, 01:40:04,VALID,1003.37,VALID,0,VALID,93.9954,VALID,0,VALID,24.1318,VALID,358,VALID,0.380859,
2009-01-26, 01:41:04,VALID,1003.39,VALID,0,VALID,94.0488,VALID,0.100563,VALID,24.1318,VALID,358,VALID,0.363672,
2009-01-26, 01:42:04,VALID,1003.38,VALID,0,VALID,94.0412,VALID,0.100563,VALID,24.1318,VALID,358,VALID,0.310547,
2009-01-26, 01:43:04,VALID,1003.38,VALID,0,VALID,94.0336,VALID,0,VALID,24.1123,VALID,358,VALID,0.442578,
2009-01-26, 01:44:04,VALID,1003.35,VALID,0,VALID,94.087,VALID,0,VALID,24.091,VALID,358,VALID,0.356641,
2009-01-26, 01:45:04,VALID,1003.34,VALID,0,VALID,94.1251,VALID,0,VALID,24.1123,VALID,358,VALID,0.502734,
2009-01-26, 01:46:04,VALID,1003.32,VALID,0,VALID,94.1556,VALID,0.100563,VALID,24.0734,VALID,358,VALID,0.371484,
2009-01-26, 01:47:04,VALID,1003.38,VALID,0,VALID,94.1633,VALID,0,VALID,24.1123,VALID,358,VALID,0.336328,
2009-01-26, 01:48:04,VALID,1003.4,VALID,0,VALID,94.1328,VALID,0,VALID,24.0929,VALID,358,VALID,0.563672,
2009-01-26, 01:49:04,VALID,1003.43,VALID,0,VALID,94.1404,VALID,0,VALID,24.0539,VALID,358,VALID,0.540234,
2009-01-26, 01:50:04,VALID,1003.47,VALID,0,VALID,94.1862,VALID,0,VALID,24.0326,VALID,358,VALID,0.421094,
2009-01-26, 01:51:04,VALID,1003.47,VALID,0,VALID,94.2243,VALID,0.100563,VALID,24.0326,VALID,358,VALID,0.365625,
2009-01-26, 01:52:04,VALID,1003.46,VALID,0,VALID,94.2548,VALID,0.100563,VALID,24.0521,VALID,358,VALID,0.384766,
2009-01-26, 01:53:04,VALID,1003.48,VALID,0,VALID,94.293,VALID,0.100563,VALID,24.0716,VALID,358,VALID,0.488672,
2009-01-26, 01:54:04,VALID,1003.49,VALID,0,VALID,94.3006,VALID,0.100563,VALID,24.0734,VALID,358,VALID,0.515625,
2009-01-26, 01:55:04,VALID,1003.52,VALID,0,VALID,94.2701,VALID,0.100563,VALID,24.0716,VALID,358,VALID,0.505859,
2009-01-26, 01:56:04,VALID,1003.54,VALID,0,VALID,94.2624,VALID,0.100563,VALID,24.0521,VALID,358,VALID,0.479688,
2009-01-26, 01:57:04,VALID,1003.58,VALID,0,VALID,94.2472,VALID,0.100563,VALID,24.0929,VALID,358,VALID,0.371484,
2009-01-26, 01:58:04,VALID,1003.62,VALID,0,VALID,94.2472,VALID,0.100563,VALID,24.0326,VALID,358,VALID,0.442578,
2009-01-26, 01:59:04,VALID,1003.59,VALID,0,VALID,94.2777,VALID,0,VALID,24.0521,VALID,357,VALID,0.364062,
2009-01-26, 02:00:04,VALID,1003.58,VALID,0,VALID,94.3006,VALID,0.100563,VALID,24.0521,VALID,357,VALID,0.355469,
2009-01-26, 02:01:04,VALID,1003.6,VALID,0,VALID,94.3006,VALID,0,VALID,24.0326,VALID,357,VALID,0.278906,
2009-01-26, 02:02:04,VALID,1003.56,VALID,0,VALID,94.293,VALID,0.100563,VALID,24.0734,VALID,357,VALID,0.246484,
2009-01-26, 02:03:04,VALID,1003.56,VALID,0,VALID,94.3387,VALID,0.100563,VALID,24.0929,VALID,357,VALID,0.289453,
2009-01-26, 02:04:04,VALID,1003.57,VALID,0,VALID,94.3387,VALID,0,VALID,24.091,VALID,357,VALID,0.319531,
2009-01-26, 02:05:04,VALID,1003.58,VALID,0,VALID,94.3692,VALID,0.100563,VALID,24.091,VALID,357,VALID,0.383984,
2009-01-26, 02:06:04,VALID,1003.62,VALID,0,VALID,94.3769,VALID,0.100563,VALID,24.1105,VALID,357,VALID,0.339453,
2009-01-26, 02:07:04,VALID,1003.59,VALID,0,VALID,94.3845,VALID,0.100563,VALID,24.1105,VALID,357,VALID,0.474219,
2009-01-26, 02:08:04,VALID,1003.62,VALID,0,VALID,94.354,VALID,0.100563,VALID,24.1123,VALID,357,VALID,0.382813,
2009-01-26, 02:09:04,VALID,1003.64,VALID,0,VALID,94.3464,VALID,0.100563,VALID,24.1105,VALID,357,VALID,0.552344,
2009-01-26, 02:10:04,VALID,1003.67,VALID,0,VALID,94.3692,VALID,0,VALID,24.0929,VALID,357,VALID,0.471875,
2009-01-26, 02:11:04,VALID,1003.69,VALID,0,VALID,94.3921,VALID,0,VALID,24.1336,VALID,357,VALID,0.355859,
2009-01-26, 02:12:04,VALID,1003.69,VALID,0,VALID,94.3921,VALID,0,VALID,24.1336,VALID,357,VALID,0.254687,
2009-01-26, 02:13:04,VALID,1003.7,VALID,0,VALID,94.4379,VALID,0,VALID,24.1531,VALID,357,VALID,0.396484,
2009-01-26, 02:14:04,VALID,1003.69,VALID,0,VALID,94.4532,VALID,0,VALID,24.1726,VALID,357,VALID,0.346875,
2009-01-26, 02:15:04,VALID,1003.67,VALID,0,VALID,94.4608,VALID,0,VALID,24.1531,VALID,357,VALID,0.270312,
2009-01-26, 02:16:04,VALID,1003.62,VALID,0,VALID,94.4608,VALID,0,VALID,24.192,VALID,357,VALID,0.228516,
2009-01-26, 02:17:04,VALID,1003.56,VALID,0,VALID,94.4303,VALID,0,VALID,24.192,VALID,357,VALID,0,
2009-01-26, 02:18:04,VALID,1003.52,VALID,0,VALID,94.4608,VALID,0,VALID,24.1707,VALID,357,VALID,0,
2009-01-26, 02:19:04,VALID,1003.52,VALID,0,VALID,94.4227,VALID,0,VALID,24.2115,VALID,357,VALID,0,
2009-01-26, 02:20:04,VALID,1003.48,VALID,0,VALID,94.3998,VALID,0,VALID,24.1902,VALID,357,VALID,0,
2009-01-26, 02:21:04,VALID,1003.49,VALID,0,VALID,94.3845,VALID,0,VALID,24.1902,VALID,357,VALID,0,
2009-01-26, 02:22:04,VALID,1003.45,VALID,0,VALID,94.3998,VALID,0,VALID,24.231,VALID,357,VALID,0,
2009-01-26, 02:23:04,VALID,1003.45,VALID,0,VALID,94.4074,VALID,0,VALID,24.2504,VALID,357,VALID,0,
2009-01-26, 02:24:04,VALID,1003.4,VALID,0,VALID,94.3387,VALID,0,VALID,24.2486,VALID,357,VALID,0,
2009-01-26, 02:25:04,VALID,1003.37,VALID,0,VALID,94.3235,VALID,0.100563,VALID,24.2486,VALID,357,VALID,0,
2009-01-26, 02:26:04,VALID,1003.33,VALID,0,VALID,94.3006,VALID,0,VALID,24.2486,VALID,357,VALID,0,
2009-01-26, 02:27:04,VALID,1003.28,VALID,0,VALID,94.3158,VALID,0,VALID,24.2486,VALID,357,VALID,0,
2009-01-26, 02:28:04,VALID,1003.2,VALID,0,VALID,94.3387,VALID,0,VALID,24.2486,VALID,357,VALID,0.0628906,
2009-01-26, 02:29:04,VALID,1003.2,VALID,0,VALID,94.3998,VALID,0,VALID,24.2875,VALID,357,VALID,0.0117188,
2009-01-26, 02:30:04,VALID,1003.19,VALID,0,VALID,94.3692,VALID,0,VALID,24.307,VALID,357,VALID,0.116406,
2009-01-26, 02:31:04,VALID,1003.19,VALID,0,VALID,94.354,VALID,0,VALID,24.307,VALID,357,VALID,0.411719,
2009-01-26, 02:32:04,VALID,1003.25,VALID,0,VALID,94.3387,VALID,0.100563,VALID,24.3265,VALID,357,VALID,0,
2009-01-26, 02:33:04,VALID,1003.25,VALID,0,VALID,94.3235,VALID,0,VALID,24.3052,VALID,358,VALID,0,
2009-01-26, 02:34:04,VALID,1003.28,VALID,0,VALID,94.293,VALID,0.100563,VALID,24.3265,VALID,358,VALID,0,
2009-01-26, 02:35:04,VALID,1003.31,VALID,0,VALID,94.2853,VALID,0.100563,VALID,24.3265,VALID,358,VALID,0,
2009-01-26, 02:36:04,VALID,1003.28,VALID,0,VALID,94.2777,VALID,0,VALID,24.3265,VALID,358,VALID,0,
2009-01-26, 02:37:04,VALID,1003.27,VALID,0,VALID,94.2853,VALID,0,VALID,24.307,VALID,358,VALID,0,
2009-01-26, 02:38:04,VALID,1003.24,VALID,0,VALID,94.3311,VALID,0,VALID,24.3052,VALID,358,VALID,0,
2009-01-26, 02:39:04,VALID,1003.26,VALID,0,VALID,94.3464,VALID,0,VALID,24.3459,VALID,358,VALID,0,
2009-01-26, 02:40:04,VALID,1003.26,VALID,0,VALID,94.3921,VALID,0,VALID,24.3654,VALID,358,VALID,0,
2009-01-26, 02:41:04,VALID,1003.26,VALID,0,VALID,94.3158,VALID,0,VALID,24.4062,VALID,357,VALID,0.0183594,
2009-01-26, 02:42:04,VALID,1003.28,VALID,0,VALID,94.3082,VALID,0,VALID,24.3849,VALID,357,VALID,0.139453,
2009-01-26, 02:43:04,VALID,1003.31,VALID,0,VALID,94.3235,VALID,0,VALID,24.4257,VALID,357,VALID,0.421094,
2009-01-26, 02:44:04,VALID,1003.33,VALID,0,VALID,94.293,VALID,0,VALID,24.4433,VALID,357,VALID,0.505078,
2009-01-26, 02:45:04,VALID,1003.33,VALID,0,VALID,94.3006,VALID,0,VALID,24.4433,VALID,357,VALID,0.580859,
2009-01-26, 02:46:04,VALID,1003.31,VALID,0,VALID,94.2701,VALID,0,VALID,24.4822,VALID,357,VALID,0.588281,
2009-01-26, 02:47:04,VALID,1003.33,VALID,0,VALID,94.1938,VALID,0,VALID,24.5017,VALID,357,VALID,0.602734,
2009-01-26, 02:48:04,VALID,1003.32,VALID,0,VALID,94.1709,VALID,0,VALID,24.523,VALID,356,VALID,0.664453,
2009-01-26, 02:49:04,VALID,1003.32,VALID,0,VALID,94.0717,VALID,0,VALID,24.5425,VALID,346,VALID,0.588672,
2009-01-26, 02:50:04,VALID,1003.3,VALID,0,VALID,94.0183,VALID,0,VALID,24.5601,VALID,347,VALID,0.464063,
2009-01-26, 02:51:04,VALID,1003.26,VALID,0,VALID,93.9039,VALID,0,VALID,24.5796,VALID,347,VALID,0.603516,
2009-01-26, 02:52:04,VALID,1003.27,VALID,0,VALID,93.7589,VALID,0.100563,VALID,24.599,VALID,352,VALID,0.469531,
2009-01-26, 02:53:04,VALID,1003.23,VALID,0,VALID,93.5606,VALID,0,VALID,24.6593,VALID,354,VALID,0.592578,
2009-01-26, 02:54:04,VALID,1003.23,VALID,0,VALID,93.4233,VALID,0,VALID,24.6964,VALID,355,VALID,0,
2009-01-26, 02:55:04,VALID,1003.23,VALID,0,VALID,93.2783,VALID,0.100563,VALID,24.7353,VALID,355,VALID,0,
2009-01-26, 02:56:04,VALID,1003.23,VALID,0,VALID,92.9808,VALID,0,VALID,24.7548,VALID,1,VALID,0.891016,
2009-01-26, 02:57:04,VALID,1003.23,VALID,0,VALID,92.7977,VALID,0,VALID,24.8151,VALID,265,VALID,0.0515625,
2009-01-26, 02:58:04,VALID,1003.27,VALID,0,VALID,92.4925,VALID,0,VALID,24.8522,VALID,265,VALID,0.371094,
2009-01-26, 02:59:04,VALID,1003.27,VALID,0,VALID,92.3705,VALID,0,VALID,24.9106,VALID,265,VALID,0.586719,
2009-01-26, 03:00:04,VALID,1003.3,VALID,0,VALID,92.2789,VALID,0,VALID,24.9904,VALID,344,VALID,0.770312,
2009-01-26, 03:01:04,VALID,1003.32,VALID,0,VALID,92.1492,VALID,0,VALID,24.9495,VALID,1,VALID,0.823828,
2009-01-26, 03:02:04,VALID,1003.29,VALID,0,VALID,91.7449,VALID,0,VALID,24.9087,VALID,359,VALID,1.08828,
2009-01-26, 03:03:04,VALID,1003.23,VALID,0,VALID,91.455,VALID,0,VALID,24.9885,VALID,356,VALID,0.980078,
2009-01-26, 03:04:04,VALID,1003.19,VALID,0,VALID,91.1193,VALID,0,VALID,25.0079,VALID,336,VALID,0.580469,
2009-01-26, 03:05:04,VALID,1003.12,VALID,0,VALID,90.9973,VALID,0,VALID,25.0469,VALID,340,VALID,0.130859,
2009-01-26, 03:06:04,VALID,1003.05,VALID,0,VALID,90.9134,VALID,0,VALID,25.0663,VALID,339,VALID,0.0335938,
2009-01-26, 03:07:04,VALID,1003.05,VALID,0,VALID,90.8523,VALID,0,VALID,25.0858,VALID,339,VALID,0,
2009-01-26, 03:08:04,VALID,1003.08,VALID,0,VALID,90.7532,VALID,0,VALID,25.0858,VALID,339,VALID,0.034375,
2009-01-26, 03:09:04,VALID,1003.06,VALID,0,VALID,90.7684,VALID,0,VALID,25.1053,VALID,339,VALID,0,
2009-01-26, 03:10:04,VALID,1003.1,VALID,0,VALID,90.8218,VALID,0,VALID,25.1053,VALID,339,VALID,0,
2009-01-26, 03:11:04,VALID,1003.09,VALID,0,VALID,91.0659,VALID,0,VALID,25.1461,VALID,339,VALID,0.0078125,
2009-01-26, 03:12:04,VALID,1003.12,VALID,0,VALID,91.0583,VALID,0,VALID,25.1053,VALID,339,VALID,0.240234,
2009-01-26, 03:13:04,VALID,1003.15,VALID,0,VALID,91.1651,VALID,0,VALID,25.0858,VALID,339,VALID,0.368359,
2009-01-26, 03:14:04,VALID,1003.11,VALID,0,VALID,91.1804,VALID,0,VALID,25.0663,VALID,339,VALID,0.167578,
2009-01-26, 03:15:05,VALID,1003.09,VALID,0,VALID,91.2567,VALID,0,VALID,25.0682,VALID,339,VALID,0.307813,
2009-01-26, 03:16:05,VALID,1003.04,VALID,0,VALID,91.2567,VALID,0,VALID,24.9885,VALID,342,VALID,0.499609,
2009-01-26, 03:17:05,VALID,1003.01,VALID,0,VALID,91.4626,VALID,0,VALID,24.9495,VALID,349,VALID,0.556641,
2009-01-26, 03:18:05,VALID,1003.05,VALID,0,VALID,91.6763,VALID,0,VALID,24.9106,VALID,6,VALID,0.482422,
2009-01-26, 03:19:05,VALID,1003.13,VALID,0,VALID,91.8822,VALID,0,VALID,24.8911,VALID,83,VALID,0.876562,
2009-01-26, 03:20:05,VALID,1003.26,VALID,0,VALID,92.1645,VALID,0,VALID,24.8716,VALID,120,VALID,1.48984,
2009-01-26, 03:21:05,VALID,1003.27,VALID,0,VALID,89.5402,VALID,0,VALID,24.7159,VALID,71,VALID,1.67969,
2009-01-26, 03:22:05,VALID,1003.27,VALID,0,VALID,89.5631,VALID,0,VALID,24.8346,VALID,114,VALID,1.70234,
2009-01-26, 03:23:05,VALID,1003.26,VALID,0,VALID,88.7391,VALID,0,VALID,24.7937,VALID,47,VALID,0.770703,
2009-01-26, 03:24:05,VALID,1003.27,VALID,0,VALID,87.221,VALID,0,VALID,24.7353,VALID,70,VALID,1.90313,
2009-01-26, 03:25:05,VALID,1003.25,VALID,0,VALID,86.8548,VALID,0,VALID,24.6788,VALID,79,VALID,1.575,
2009-01-26, 03:26:05,VALID,1003.29,VALID,0,VALID,86.275,VALID,0,VALID,24.5582,VALID,98,VALID,2.64844,
2009-01-26, 03:27:05,VALID,1003.34,VALID,0,VALID,86.481,VALID,0,VALID,24.4822,VALID,83,VALID,2.18984,
2009-01-26, 03:28:05,VALID,1003.32,VALID,0,VALID,87.2439,VALID,0,VALID,24.3849,VALID,88,VALID,2.1668,
2009-01-26, 03:29:05,VALID,1003.26,VALID,0,VALID,87.6558,VALID,0,VALID,24.2468,VALID,71,VALID,2.65508,
2009-01-26, 03:30:05,VALID,1003.17,VALID,0,VALID,87.9915,VALID,0,VALID,24.1707,VALID,27,VALID,2.4043,
2009-01-26, 03:31:05,VALID,1003.23,VALID,0,VALID,88.4111,VALID,0,VALID,24.0539,VALID,100,VALID,3.2875,
2009-01-26, 03:32:05,VALID,1003.23,VALID,0,VALID,88.0831,VALID,0,VALID,23.9779,VALID,84,VALID,2.91719,
2009-01-26, 03:33:05,VALID,1003.14,VALID,0,VALID,87.6329,VALID,0,VALID,23.9566,VALID,104,VALID,3.81211,
2009-01-26, 03:34:05,VALID,1003.16,VALID,0,VALID,87.9534,VALID,0,VALID,23.9177,VALID,52,VALID,2.41289,
2009-01-26, 03:35:05,VALID,1003.09,VALID,0,VALID,87.9534,VALID,0,VALID,23.8398,VALID,93,VALID,2.71992,
2009-01-26, 03:36:05,VALID,1003.01,VALID,0,VALID,87.8542,VALID,0,VALID,23.7814,VALID,86,VALID,4.30156,
2009-01-26, 03:37:05,VALID,1003.12,VALID,0,VALID,88.0602,VALID,0,VALID,23.723,VALID,117,VALID,2.60078,
2009-01-26, 03:38:05,VALID,1003.12,VALID,0,VALID,88.2356,VALID,0,VALID,23.6841,VALID,71,VALID,2.58828,
2009-01-26, 03:39:05,VALID,1003.19,VALID,0,VALID,88.0449,VALID,0,VALID,23.6469,VALID,69,VALID,2.20664,
2009-01-26, 03:40:05,VALID,1003.18,VALID,0,VALID,88.2051,VALID,0,VALID,23.5885,VALID,99,VALID,1.71211,
2009-01-26, 03:41:05,VALID,1003.22,VALID,0,VALID,88.2661,VALID,0,VALID,23.5089,VALID,84,VALID,2.10586,
2009-01-26, 03:42:05,VALID,1003.26,VALID,0,VALID,88.2204,VALID,0,VALID,23.4894,VALID,77,VALID,2.17969,
2009-01-26, 03:43:05,VALID,1003.3,VALID,0,VALID,88.5484,VALID,0,VALID,23.4523,VALID,99,VALID,1.73047,
2009-01-26, 03:44:05,VALID,1003.34,VALID,0,VALID,88.9527,VALID,0,VALID,23.3921,VALID,87,VALID,1.3793,
2009-01-26, 03:45:05,VALID,1003.36,VALID,0.5,VALID,89.4868,VALID,0,VALID,23.2559,VALID,86,VALID,2.68281,
2009-01-26, 03:46:05,VALID,1003.39,VALID,0,VALID,90.2649,VALID,0,VALID,23.1603,VALID,65,VALID,1.67578,